Location: Oberstdorf
(47.4188°N, 10.2969°E)
Time: 10:00:24
(UTC+02:00)

ISS - Pass Details

Date: 14 February 2018
Orbit: 402 x 406 km, 51.6° (Epoch: 18 June)

Event Time Altitude Azimuth Distance (km) Brightness Sun altitude
Rises 18:21:25 0° 285° (WNW) 2,320 1.4 -7.5°
Reaches altitude 10° 18:24:09 10° 260° (W) 1,456 0.8 -8.0°
Maximum altitude 18:26:02 15° 224° (SW) 1,206 -0.6 -8.3°
Drops below altitude 10° 18:27:56 10° 189° (S) 1,451 -0.8 -8.6°
Sets 18:30:39 0° 164° (SSE) 2,306 -0.1 -9.0°
